Location: Maccacari
(45.1333°N, 11.1333°E)
Time: 00:34:05
(UTC+00:00)

Tiros 1 despin weight - Pass Details

Date: 22 January 2021
Orbit: 593 x 642 km, 48.2° (Epoch: 07 March)

Event Time Altitude Azimuth Distance (km) Brightness Sun altitude
Rises 16:22:51 0° 268° (W) 2,868 ? -3.0°
Reaches altitude 10° 16:25:11 10° 272° (W) 1,957 ? -3.4°
Maximum altitude 16:29:38 60° 353° (N) 689 ? -4.1°
Drops below altitude 10° 16:34:01 10° 74° (ENE) 1,935 ? -4.8°
Enters shadow 16:34:56 - 76° (ENE) 2,288 ? -5.0°
Sets 16:36:20 0° 78° (ENE) 2,833 - -5.2°
